Zurück zum Katalog

FENGYUN 2G

AktivWetterGEO
NORAD 40367·PAYLOAD·🇨🇳 China

Gestartet Dec 31, 2014 von Xichang Satellite Launch Center

Loading…

TLE

AktuellSource: Space-Track

Epoche: Sep 14, 2026, 12:33 UTC

1 40367U 14090A   26257.52356869 -.00000310  00000-0  00000-0 0  9995
2 40367   5.8593  71.6952 0003765 186.9465  23.1020  1.00273849 42897

Verfolge FENGYUN 2G in Echtzeit mit AllMySat

Download on the App Store